[[{"header":{"parameterUnit":"m.s-1","parameterCategory":2,"la1":30.2992,"la2":30.254,"lo1":-89.0895,"lo2":-89.0443,"dy":0.0025,"dx":0.0025,"nx":19,"ny":19,"refTime":"2026-05-12T21:00:00:Z","depth":"0","parameterNumber":2,"parameterNumberName":"U-component_of_CURRENTS"},"data":[0,0,0,0.354,0.3543,0.3648,0.3648,0.3569,0.3568,0,0,0,0,0,0,0,0,0,0,0,0.349,0.3491,0.354,0.3543,0.3648,0.3648,0.357,0.3568,0,0,0,0,0,0,0,0,0,0,0,0.349,0.3491,0.3492,0.3544,0.3648,0.3648,0.357,0.3541,0,0,0,0,0,0,0,0,0,0,0.3465,0.3464,0.3491,0.3492,0.3544,0.3647,0.3648,0.3542,0.3543,0.3464,0,0.3484,0,0.3529,0.3559,0.3558,0,0,0,0.3534,0.3464,0.3484,0.3492,0.3545,0.3647,0.3598,0.3544,0.3545,0.3464,0.3484,0.3483,0.3527,0.3558,0.3557,0.3471,0.3472,0,0,0.3528,0.3511,0.3485,0.3485,0.3572,0.3595,0.3601,0.3547,0.3546,0.3484,0.3482,0.3526,0.3557,0.3556,0.3471,0.3471,0,0,0,0.3518,0.3507,0.3533,0.3486,0.3525,0.3598,0.3606,0.3549,0.3556,0.3482,0.3525,0.3556,0.3554,0.3471,0.3471,0.3505,0,0,0,0.3514,0.3502,0.353,0.3521,0.3527,0.3571,0.3608,0.356,0.3556,0.3525,0.3556,0.3553,0.3471,0.3471,0.3504,0.3557,0,0,0,0.3486,0.35,0.3511,0.352,0.3571,0.3574,0.358,0.3561,0.3581,0.3558,0.3553,0.3471,0.3471,0.3503,0.3554,0.3664,0,0,0,0.3465,0.3484,0.351,0.3537,0.357,0.3605,0.3581,0.3596,0.358,0.3555,0.3471,0.3471,0.3502,0.3552,0.3661,0.3602,0.3613,0,0,0.3475,0.3484,0.3499,0.3525,0.3559,0.359,0.3604,0.3574,0.3552,0.3471,0.3471,0.3504,0.3554,0.3663,0.3616,0.3627,0,0,0,0.3493,0.3503,0.3515,0.3546,0.3573,0.3599,0.3593,0.3582,0.3554,0.3549,0.35,0.3531,0.3599,0.3555,0.3564,0.3466,0.3473,0.3472,0.3472,0.3454,0.3487,0.3512,0.355,0.3564,0.3592,0.3608,0.3589,0.3545,0.3548,0.3553,0.3655,0.3604,0.3611,0.3509,0.3526,0.3526,0.3526,0.3526,0.3453,0.3472,0.3508,0.3543,0.3566,0.3572,0.3592,0.3594,0.3647,0.3581,0.3645,0.3585,0.3622,0.351,0.3528,0.3528,0.3528,0.3528,0.3528,0.3418,0.3439,0.3471,0.3525,0.3556,0.3579,0.3626,0.3685,0.3699,0.3757,0.3764,0.3761,0.3675,0.3808,0.3809,0.3809,0.381,0.3811,0.3811,0.3371,0.3413,0.3428,0.3511,0.3525,0.3592,0.3688,0.3739,0.3833,0.3834,0.3834,0.3686,0.3743,0.3746,0.3822,0.382,0.3818,0.3817,0.3817,0.3351,0.3361,0.3374,0.3391,0.3451,0.3462,0.3626,0.3752,0.386,0.3905,0.378,0.3878,0.3886,0.3876,0.3883,0.3991,0.3991,0.3991,0.3991,0.3316,0.3331,0.3283,0.3269,0.3309,0.3372,0.3347,0.3501,0.3692,0.373,0.3797,0.3662,0.3659,0.3646,0.3642,0.364,0.3685,0.3684,0.3684,0.3299,0.3272,0.3203,0.3182,0.3207,0.321,0.3139,0.3143,0.3429,0.3663,0.368,0.3693,0.3483,0.3486,0.3451,0.3452,0.3445,0,0]},{"header":{"parameterUnit":"m.s-1","parameterCategory":2,"la1":30.2992,"la2":30.254,"lo1":-89.0895,"lo2":-89.0443,"dy":0.0025,"dx":0.0025,"nx":19,"ny":19,"refTime":"2026-05-12T21:00:00:Z","depth":"0","parameterNumber":3,"parameterNumberName":"V-component_of_CURRENTS"},"data":[0,0,0,-0.0297,-0.0302,-0.0617,-0.0619,-0.1093,-0.1096,0,0,0,0,0,0,0,0,0,0,0,-0.019,-0.0191,-0.0297,-0.0302,-0.0617,-0.0619,-0.1092,-0.1096,0,0,0,0,0,0,0,0,0,0,0,-0.019,-0.0191,-0.0191,-0.0303,-0.0616,-0.0619,-0.1091,-0.0854,0,0,0,0,0,0,0,0,0,0,-0.0547,-0.0424,-0.0191,-0.0191,-0.0304,-0.0616,-0.062,-0.0843,-0.0869,-0.0947,0,-0.0948,0,-0.1001,-0.1123,-0.1124,0,0,0,-0.0377,-0.0402,-0.0458,-0.0192,-0.0306,-0.0615,-0.0496,-0.0857,-0.0887,-0.0981,-0.0955,-0.0972,-0.1009,-0.1125,-0.1127,-0.1329,-0.1328,0,0,-0.0359,-0.0297,-0.0437,-0.0475,-0.0328,-0.0485,-0.0505,-0.0875,-0.0899,-0.0956,-0.0983,-0.1017,-0.1128,-0.1131,-0.1329,-0.1329,0,0,0,-0.0259,-0.0284,-0.0333,-0.0455,-0.0489,-0.0492,-0.0515,-0.0884,-0.0889,-0.0989,-0.1022,-0.113,-0.1135,-0.133,-0.1329,-0.1108,0,0,0,-0.0252,-0.022,-0.0323,-0.0297,-0.0479,-0.0683,-0.0515,-0.0865,-0.0908,-0.102,-0.1131,-0.1139,-0.1331,-0.133,-0.1115,-0.0945,0,0,0,-0.0187,-0.0215,-0.0225,-0.0291,-0.0391,-0.0677,-0.071,-0.0877,-0.0925,-0.1125,-0.114,-0.1332,-0.133,-0.1122,-0.096,-0.0761,0,0,0,-0.0153,-0.0141,-0.0223,-0.0232,-0.0386,-0.0531,-0.0709,-0.0865,-0.1017,-0.1132,-0.1331,-0.1329,-0.1124,-0.0969,-0.0772,-0.0576,-0.0511,0,0,-0.0114,-0.0136,-0.014,-0.0218,-0.0277,-0.0497,-0.0604,-0.0866,-0.1018,-0.123,-0.1236,-0.1113,-0.0961,-0.0763,-0.0473,-0.0409,0,0,0,-0.0112,-0.0109,-0.0142,-0.0199,-0.0328,-0.0448,-0.072,-0.0799,-0.0968,-0.1086,-0.1139,-0.1049,-0.0931,-0.0838,-0.0788,-0.0944,-0.1321,-0.1321,-0.1321,-0.0,-0.0059,-0.0071,-0.0163,-0.0251,-0.0449,-0.0517,-0.0681,-0.0889,-0.0885,-0.0891,-0.061,-0.0514,-0.0473,-0.0639,-0.0957,-0.0956,-0.0955,-0.0955,0.0078,0.0072,-0.0001,-0.0025,-0.0131,-0.0234,-0.0375,-0.0464,-0.0476,-0.0693,-0.0592,-0.0637,-0.0404,-0.0601,-0.0941,-0.0943,-0.0945,-0.0947,-0.0948,0.0159,0.0146,0.0138,0.011,0.0081,-0.006,0.0034,-0.0094,-0.0213,-0.0134,-0.0053,-0.0056,-0.0203,-0.0102,-0.01,-0.0099,-0.0097,-0.0096,-0.0095,0.0244,0.0226,0.0272,0.0254,0.0263,0.0308,0.0296,0.0363,0.0388,0.0271,0.0271,-0.0109,-0.0349,-0.0352,-0.007,-0.0074,-0.0078,-0.008,-0.0082,0.0317,0.0337,0.0408,0.0447,0.0524,0.0708,0.0718,0.0946,0.0986,0.1074,0.0547,0.048,0.0454,0.0411,0.0425,0.0892,0.0892,0.0892,0.0892,0.0383,0.0392,0.0522,0.0625,0.0773,0.0886,0.1273,0.1397,0.1219,0.1054,0.0855,0.0635,0.0602,0.0565,0.0518,0.0525,0.1007,0.1006,0.1005,0.0437,0.0472,0.0593,0.0703,0.0871,0.113,0.1514,0.1699,0.1343,0.098,0.0611,0.0606,0.0232,0.0193,0.0073,0.002,0.0005,0,0]}],[{"header":{"parameterUnit":"m.s-1","parameterCategory":2,"la1":30.2992,"la2":30.254,"lo1":-89.0895,"lo2":-89.0443,"dy":0.0025,"dx":0.0025,"nx":19,"ny":19,"refTime":"2026-05-12T21:00:00:Z","depth":"2","parameterNumber":2,"parameterNumberName":"U-component_of_CURRENTS"},"data":[0,0,0,0.2758,0.276,0.2969,0.297,0.3167,0.3168,0,0,0,0,0,0,0,0,0,0,0,0.2716,0.2716,0.2758,0.276,0.2968,0.297,0.3167,0.3168,0,0,0,0,0,0,0,0,0,0,0,0.2716,0.2716,0.2717,0.2761,0.2968,0.297,0.3167,0.3044,0,0,0,0,0,0,0,0,0,0,0.2858,0.2773,0.2716,0.2717,0.2761,0.2968,0.2971,0.304,0.3052,0.303,0,0.3039,0,0.3059,0.3172,0.3173,0,0,0,0.2834,0.2763,0.2828,0.2717,0.2762,0.2967,0.2895,0.3048,0.3061,0.3045,0.3041,0.3049,0.3062,0.3173,0.3173,0.3209,0.3208,0,0,0.2822,0.2752,0.2819,0.2836,0.2783,0.2888,0.2901,0.3058,0.3047,0.3042,0.3053,0.3065,0.3173,0.3174,0.3209,0.3208,0,0,0,0.274,0.2742,0.2809,0.2828,0.2844,0.2892,0.2907,0.3043,0.3066,0.3055,0.3067,0.3174,0.3175,0.3209,0.3209,0.3289,0,0,0,0.2737,0.269,0.2803,0.2763,0.284,0.2943,0.2887,0.3058,0.3075,0.3066,0.3174,0.3175,0.3209,0.3209,0.3287,0.3295,0,0,0,0.2712,0.2686,0.2704,0.2758,0.2814,0.2942,0.298,0.3065,0.3077,0.3173,0.3176,0.3209,0.3209,0.3286,0.3293,0.3385,0,0,0,0.2647,0.2685,0.2702,0.2716,0.2811,0.2947,0.298,0.3106,0.3194,0.3174,0.3209,0.3209,0.3285,0.3291,0.3383,0.3202,0.3201,0,0,0.2674,0.2685,0.2692,0.2712,0.2832,0.2925,0.3032,0.3163,0.3169,0.3165,0.3168,0.3288,0.3293,0.3385,0.3181,0.318,0,0,0,0.2685,0.2712,0.2747,0.2792,0.2883,0.3001,0.3115,0.3163,0.3244,0.3199,0.3257,0.3256,0.3314,0.3197,0.3196,0.3207,0.3207,0.3207,0.3207,0.2672,0.2714,0.2767,0.285,0.2928,0.3071,0.3173,0.3239,0.3253,0.3289,0.3302,0.3389,0.3263,0.3261,0.329,0.329,0.3291,0.3291,0.3291,0.2714,0.2731,0.2788,0.2876,0.297,0.3067,0.3206,0.3266,0.3378,0.3338,0.3393,0.3258,0.3265,0.3297,0.3296,0.3295,0.3294,0.3294,0.3294,0.2667,0.2704,0.2755,0.2867,0.2985,0.3092,0.3216,0.3339,0.3417,0.3488,0.3392,0.3387,0.3469,0.3543,0.3544,0.3544,0.3545,0.3545,0.3545,0.2623,0.2697,0.2757,0.2886,0.2939,0.3066,0.3255,0.3339,0.3426,0.3437,0.3436,0.3475,0.3466,0.3482,0.3552,0.3551,0.355,0.3549,0.3549,0.262,0.2697,0.2739,0.2794,0.2916,0.2919,0.3154,0.3231,0.337,0.3363,0.3419,0.342,0.3381,0.3377,0.3389,0.3431,0.3431,0.3431,0.3431,0.2643,0.267,0.2742,0.2754,0.2795,0.285,0.2773,0.2814,0.2999,0.3034,0.3051,0.292,0.2934,0.2864,0.2871,0.287,0.2777,0.2776,0.2775,0.2692,0.2688,0.2685,0.2681,0.2703,0.2671,0.2446,0.228,0.2444,0.2747,0.2919,0.3391,0.3239,0.3245,0.3167,0.3168,0.3178,0,0]},{"header":{"parameterUnit":"m.s-1","parameterCategory":2,"la1":30.2992,"la2":30.254,"lo1":-89.0895,"lo2":-89.0443,"dy":0.0025,"dx":0.0025,"nx":19,"ny":19,"refTime":"2026-05-12T21:00:00:Z","depth":"2","parameterNumber":3,"parameterNumberName":"V-component_of_CURRENTS"},"data":[0,0,0,0.0437,0.0439,0.034,0.0338,0.006,0.0059,0,0,0,0,0,0,0,0,0,0,0,0.0376,0.0376,0.0436,0.0439,0.0341,0.0338,0.006,0.0059,0,0,0,0,0,0,0,0,0,0,0,0.0376,0.0376,0.0376,0.044,0.0341,0.0338,0.0061,0.0141,0,0,0,0,0,0,0,0,0,0,0.0242,0.0291,0.0376,0.0376,0.044,0.0342,0.0338,0.0145,0.0136,0.0103,0,0.0112,0,0.018,0.0049,0.0049,0,0,0,0.0305,0.0299,0.0281,0.0376,0.0441,0.0342,0.0347,0.014,0.013,0.0092,0.011,0.0103,0.0175,0.0048,0.0047,-0.0041,-0.0041,0,0,0.0311,0.0338,0.0288,0.0276,0.0447,0.0352,0.0346,0.0134,0.013,0.0109,0.0099,0.0171,0.0047,0.0046,-0.0042,-0.0041,0,0,0,0.0417,0.0342,0.0327,0.0283,0.0334,0.0352,0.0345,0.0135,0.0135,0.0097,0.0168,0.0046,0.0045,-0.0042,-0.0041,0.0044,0,0,0,0.0413,0.0415,0.0331,0.0343,0.0341,0.0274,0.0352,0.0143,0.0128,0.0169,0.0046,0.0043,-0.0042,-0.0042,0.0042,0.0166,0,0,0,0.0375,0.0414,0.0411,0.0345,0.0376,0.0279,0.0259,0.0139,0.0177,0.0048,0.0043,-0.0042,-0.0042,0.0039,0.0159,0.0248,0,0,0,0.0387,0.0413,0.0411,0.0462,0.0379,0.0392,0.026,0.0192,0.0088,0.0046,-0.0042,-0.0041,0.0039,0.0155,0.0243,0.0291,0.0318,0,0,0.043,0.0419,0.0449,0.045,0.0494,0.0394,0.0403,0.0187,0.0079,-0.0006,-0.0009,0.0043,0.0159,0.0247,0.0307,0.0335,0,0,0,0.0471,0.048,0.049,0.0526,0.0529,0.0508,0.0362,0.0262,0.0084,0.0053,0.0024,0.0096,0.0149,0.0165,0.0186,-0.004,-0.004,-0.004,-0.004,0.052,0.0532,0.0582,0.0591,0.0596,0.0552,0.0484,0.0328,0.0185,0.0101,0.0148,0.0263,0.0276,0.0294,0.0081,0.0081,0.0082,0.0082,0.0082,0.0602,0.0645,0.0645,0.0687,0.0686,0.0683,0.0581,0.0461,0.0365,0.0209,0.0252,0.0234,0.0324,0.0088,0.0087,0.0086,0.0086,0.0085,0.0085,0.0663,0.0682,0.0696,0.0755,0.0782,0.0763,0.0806,0.0678,0.0504,0.0521,0.0512,0.051,0.0377,0.0506,0.0507,0.0508,0.0509,0.0509,0.051,0.0716,0.073,0.0784,0.0826,0.0867,0.0932,0.0931,0.0926,0.0832,0.0682,0.068,0.0408,0.0394,0.0403,0.0524,0.0522,0.052,0.0519,0.0518,0.0794,0.0773,0.0871,0.0921,0.1043,0.1167,0.1178,0.1205,0.1159,0.1129,0.0764,0.0753,0.0754,0.0734,0.075,0.0956,0.0956,0.0956,0.0956,0.0822,0.0833,0.0935,0.1048,0.1201,0.1277,0.143,0.1349,0.1165,0.0995,0.0993,0.0862,0.0845,0.0842,0.0819,0.0832,0.106,0.106,0.106,0.0862,0.089,0.0982,0.1091,0.1261,0.1423,0.1522,0.139,0.1112,0.1059,0.0955,0.0974,0.0767,0.0745,0.0721,0.0693,0.0706,0,0]}],[{"header":{"parameterUnit":"m.s-1","parameterCategory":2,"la1":30.2992,"la2":30.254,"lo1":-89.0895,"lo2":-89.0443,"dy":0.0025,"dx":0.0025,"nx":19,"ny":19,"refTime":"2026-05-12T21:00:00:Z","depth":"4","parameterNumber":2,"parameterNumberName":"U-component_of_CURRENTS"},"data":[0,0,0,0.1193,0.1194,0.1233,0.1233,0.117,0.1169,0,0,0,0,0,0,0,0,0,0,0,0.1178,0.1179,0.1193,0.1195,0.1233,0.1233,0.117,0.1169,0,0,0,0,0,0,0,0,0,0,0,0.1178,0.1179,0.118,0.1195,0.1233,0.1233,0.117,0.1162,0,0,0,0,0,0,0,0,0,0,0.1136,0.1165,0.1179,0.118,0.1195,0.1233,0.1233,0.1162,0.1162,0.1129,0,0.1161,0,0.1175,0.1165,0.1165,0,0,0,0.1166,0.1166,0.1166,0.1181,0.1196,0.1233,0.1207,0.1163,0.1163,0.1129,0.116,0.1159,0.1174,0.1165,0.1164,0.1343,0.1345,0,0,0.1164,0.1185,0.1167,0.1167,0.1237,0.1206,0.1209,0.1164,0.118,0.116,0.1158,0.1173,0.1164,0.1164,0.1341,0.1343,0,0,0,0.1177,0.1184,0.1187,0.1169,0.1192,0.1208,0.1211,0.1182,0.1182,0.1158,0.1172,0.1164,0.1163,0.1338,0.1342,0.1436,0,0,0,0.1174,0.1193,0.1187,0.1199,0.1194,0.1208,0.1231,0.1185,0.1181,0.1173,0.1164,0.1163,0.1335,0.134,0.1428,0.1462,0,0,0,0.1171,0.1193,0.1205,0.1201,0.123,0.1209,0.1206,0.1184,0.119,0.1165,0.1162,0.1333,0.1339,0.142,0.145,0.1541,0,0,0,0.1177,0.1191,0.1207,0.1245,0.123,0.1241,0.1207,0.1208,0.1192,0.1164,0.1336,0.1341,0.1418,0.1443,0.1534,0.1218,0,0,0,0.1182,0.1193,0.1215,0.1229,0.1249,0.1232,0.1303,0.1269,0.1281,0.1329,0.1334,0.1431,0.145,0.154,0.1562,0,0,0,0,0.1208,0.1214,0.1222,0.1262,0.1276,0.1323,0.1315,0.1367,0.1477,0.1309,0.1522,0.1533,0.1584,0.1385,0.1369,0.1369,0.1368,0.1367,0.1367,0.1215,0.1239,0.1242,0.1271,0.1328,0.1397,0.1463,0.156,0.154,0.167,0.1677,0.1904,0.1706,0.1759,0.1759,0.176,0.176,0.1761,0.1761,0.1188,0.1182,0.1256,0.1282,0.1382,0.1494,0.1647,0.1706,0.1912,0.188,0.1926,0.1584,0.1773,0.177,0.1768,0.1767,0.1766,0.1765,0.1765,0.1156,0.1143,0.1185,0.1267,0.1393,0.1551,0.1736,0.1908,0.2009,0.2087,0.1901,0.1991,0.1903,0.2136,0.2137,0.2138,0.2138,0.2139,0.2139,0.111,0.1113,0.1159,0.1235,0.1338,0.1537,0.1808,0.1933,0.2081,0.2003,0.2146,0.203,0.2018,0.1929,0.2149,0.2147,0.2146,0.2145,0.2144,0.1034,0.1086,0.1085,0.1161,0.1332,0.1433,0.1697,0.1866,0.196,0.1954,0.1946,0.1953,0.1886,0.1877,0.1778,0.1962,0.1959,0.1955,0,0.1013,0.1029,0.0996,0.1052,0.1165,0.1359,0.1426,0.1564,0.1748,0.17,0.1945,0.1931,0.1935,0.1849,0.1837,0.1717,0,0,0,0.0975,0.095,0.0867,0.0918,0.1061,0.1252,0.1425,0.1443,0.1707,0.1714,0.1873,0.1895,0.1966,0.2177,0.2091,0.2076,0.1928,0,0]},{"header":{"parameterUnit":"m.s-1","parameterCategory":2,"la1":30.2992,"la2":30.254,"lo1":-89.0895,"lo2":-89.0443,"dy":0.0025,"dx":0.0025,"nx":19,"ny":19,"refTime":"2026-05-12T21:00:00:Z","depth":"4","parameterNumber":3,"parameterNumberName":"V-component_of_CURRENTS"},"data":[0,0,0,0.0502,0.0505,0.0658,0.0659,0.0681,0.0681,0,0,0,0,0,0,0,0,0,0,0,0.0441,0.0442,0.0502,0.0505,0.0658,0.0659,0.0681,0.0681,0,0,0,0,0,0,0,0,0,0,0,0.0441,0.0442,0.0442,0.0505,0.0658,0.0659,0.0682,0.0613,0,0,0,0,0,0,0,0,0,0,0.0488,0.047,0.0442,0.0442,0.0506,0.0658,0.0659,0.0612,0.0617,0.0557,0,0.0569,0,0.0616,0.0677,0.0676,0,0,0,0.0523,0.0466,0.0484,0.0442,0.0507,0.0657,0.0594,0.0617,0.0622,0.0563,0.057,0.0573,0.0616,0.0676,0.0676,0.0723,0.0724,0,0,0.0514,0.0492,0.0481,0.0488,0.0528,0.0589,0.0598,0.0622,0.0628,0.0571,0.0575,0.0617,0.0676,0.0675,0.0722,0.0723,0,0,0,0.0478,0.0486,0.0508,0.0485,0.0522,0.0593,0.0604,0.0629,0.0629,0.0575,0.0617,0.0676,0.0675,0.0721,0.0722,0.0741,0,0,0,0.0474,0.0463,0.0504,0.0496,0.0522,0.0606,0.0609,0.0628,0.0633,0.0617,0.0676,0.0674,0.072,0.0722,0.0739,0.0744,0,0,0,0.0438,0.0461,0.0468,0.0493,0.0551,0.0607,0.0613,0.0632,0.0656,0.0676,0.0674,0.0719,0.0721,0.0736,0.0741,0.0681,0,0,0,0.0424,0.0451,0.0467,0.0507,0.0549,0.0636,0.0614,0.0681,0.0705,0.0675,0.072,0.0722,0.0735,0.0738,0.068,0.0632,0,0,0,0.0452,0.0454,0.0476,0.0494,0.0568,0.0618,0.0709,0.0723,0.0719,0.0699,0.0702,0.074,0.074,0.0681,0.0771,0,0,0,0,0.0481,0.05,0.0523,0.057,0.0624,0.0701,0.0747,0.0754,0.0784,0.0741,0.0782,0.0782,0.0742,0.0716,0.0733,0.0733,0.0733,0.0733,0.0732,0.0502,0.0529,0.0578,0.0627,0.0689,0.0765,0.0802,0.0826,0.0815,0.0844,0.0829,0.0843,0.0824,0.0866,0.0867,0.0867,0.0867,0.0867,0.0867,0.0555,0.0585,0.0627,0.0699,0.0754,0.0844,0.0871,0.0873,0.0868,0.089,0.0849,0.0782,0.087,0.0869,0.0869,0.0869,0.0868,0.0868,0.0868,0.0568,0.0589,0.0635,0.0736,0.0826,0.0903,0.0939,0.0948,0.0888,0.0871,0.0801,0.0838,0.0795,0.0843,0.0842,0.0842,0.0842,0.0842,0.0842,0.0575,0.0613,0.0701,0.0793,0.0864,0.0957,0.0983,0.0941,0.0885,0.0822,0.0873,0.0833,0.0834,0.0794,0.0839,0.0839,0.084,0.084,0.084,0.0621,0.0667,0.0751,0.0827,0.0951,0.0987,0.1021,0.0894,0.0807,0.0703,0.0762,0.0767,0.0736,0.0738,0.0692,0.0708,0.0708,0.0707,0,0.0668,0.0695,0.0809,0.0889,0.0944,0.1005,0.0914,0.0839,0.0729,0.0737,0.0766,0.0839,0.084,0.0812,0.0813,0.0765,0,0,0,0.0735,0.075,0.0814,0.0881,0.0935,0.0897,0.0881,0.081,0.0801,0.0663,0.0694,0.0697,0.0785,0.083,0.0792,0.0793,0.0724,0,0]}]]